Date String (YYYY-MM-DD hh:mm:ss) UTC,Instrument flags,absolute air pressure of the measurement (hPa),sample flow rate (lpm),inlet stack bypass flow (lpm),air temperature of the measurement (°C),ambient temperature measured by the external sensor (°C),aerosol sample conditioner tube jacket temperature (°C),OPC LED temperature (°C),internal box temperature (°C),relative humidity of the measurement (%),span deviation,mass concentration of particles derived from Lorenz-Mie calculation of OPC scattering (μg/m³),mass concentration of particles derived from Lorenz-Mie calculation of OPC scattering (μg/m³),mass concentration of particles derived from Lorenz-Mie calculation of OPC scattering (μg/m³)
DateTimeUTC,F1_M11,P_M11,Q1_M11,Q2_M11,T1_M11,T2_M11,T3_M11,T4_M11,T5_M11,U1_M11,ZSPAN_M11,X2_M11,X0_M11,X1_M11
2024-03-26 01:00:00,SystemResetWarning,0818.6,5.00,000.00,018.2,017.3,000.0,026.9,020.0,14.9,0000.0,0007.67,0010.59,0007.48
2024-03-26 01:01:00,SystemResetWarning,0818.7,5.02,000.00,018.2,017.3,000.0,026.9,020.0,14.9,0000.0,0007.70,0010.68,0007.50
2024-03-26 01:02:00,SystemResetWarning,0818.6,4.99,000.00,018.2,017.3,000.0,026.9,020.0,15.0,0000.0,0007.71,0010.67,0007.51
2024-03-26 01:03:00,SystemResetWarning,0818.6,4.99,000.00,018.2,017.3,000.0,026.9,020.0,15.0,0000.0,0007.73,0010.68,0007.53
2024-03-26 01:04:00,SystemResetWarning,0818.6,5.01,000.00,018.2,017.3,000.0,026.9,020.0,15.0,0000.0,0007.76,0010.48,0007.54
2024-03-26 01:05:00,SystemResetWarning,0818.6,5.01,000.00,018.2,017.3,000.0,026.9,020.0,15.0,0000.0,0007.78,0010.09,0007.55
2024-03-26 01:06:00,SystemResetWarning,0818.7,5.00,000.00,018.2,017.3,000.0,026.9,020.0,15.0,0000.0,0007.77,0009.88,0007.54
2024-03-26 01:07:00,SystemResetWarning,0818.7,4.99,000.00,018.2,017.3,000.0,026.9,020.0,15.0,0000.0,0007.78,0009.88,0007.54
2024-03-26 01:08:00,SystemResetWarning,0818.7,4.99,000.00,018.2,017.3,000.0,026.9,020.0,15.0,0000.0,0007.78,0009.60,0007.54
2024-03-26 01:09:00,SystemResetWarning,0818.7,5.00,000.00,018.2,017.3,000.0,026.9,020.0,15.0,0000.0,0007.77,0009.34,0007.54
2024-03-26 01:10:00,SystemResetWarning,0818.7,5.02,000.00,018.2,017.3,000.0,026.9,020.0,14.9,0000.0,0007.79,0009.42,0007.53
2024-03-26 01:11:00,SystemResetWarning,0818.6,5.01,000.00,018.2,017.3,000.0,026.9,020.0,15.0,0000.0,0007.81,0009.44,0007.55
2024-03-26 01:12:00,SystemResetWarning,0818.7,5.00,000.00,018.2,017.3,000.0,026.9,020.0,15.0,0000.0,0007.80,0009.39,0007.54
2024-03-26 01:13:00,SystemResetWarning,0818.7,5.00,000.00,018.2,017.3,000.0,026.9,020.0,14.9,0000.0,0007.80,0009.39,0007.54
2024-03-26 01:14:00,SystemResetWarning,0818.7,5.00,000.00,018.2,017.3,000.0,026.9,020.0,15.0,0000.0,0007.80,0009.37,0007.55
2024-03-26 01:15:00,SystemResetWarning,0818.7,4.99,000.00,018.2,017.3,000.0,026.9,020.0,15.0,0000.0,0007.79,0009.35,0007.56
2024-03-26 01:16:00,SystemResetWarning,0818.6,4.99,000.00,018.2,017.3,000.0,026.9,020.0,15.0,0000.0,0007.78,0009.64,0007.57
2024-03-26 01:17:00,SystemResetWarning,0818.7,5.01,000.00,018.2,017.3,000.0,026.9,020.0,15.0,0000.0,0007.78,0009.63,0007.59
2024-03-26 01:18:00,SystemResetWarning,0818.7,5.01,000.00,018.2,017.3,000.0,026.9,020.0,15.1,0000.0,0007.78,0009.64,0007.60
2024-03-26 01:19:00,SystemResetWarning,0818.7,5.00,000.00,018.2,017.3,000.0,026.9,020.0,15.1,0000.0,0007.81,0010.38,0007.62
2024-03-26 01:20:00,SystemResetWarning,0818.7,4.99,000.00,018.2,017.3,000.0,026.9,020.0,15.1,0000.0,0007.85,0010.44,0007.64
2024-03-26 01:21:00,SystemResetWarning,0818.7,5.00,000.00,018.2,017.3,000.0,026.9,020.0,15.1,0000.0,0007.87,0010.45,0007.66
2024-03-26 01:22:00,SystemResetWarning,0818.7,5.01,000.00,018.2,017.3,000.0,026.9,020.0,15.2,0000.0,0007.87,0010.44,0007.67
2024-03-26 01:23:00,SystemResetWarning,0818.9,5.02,000.00,018.2,017.3,000.0,026.9,020.0,15.2,0000.0,0007.88,0010.60,0007.68
2024-03-26 01:24:00,SystemResetWarning,0818.7,4.99,000.00,018.2,017.3,000.0,026.9,020.0,15.2,0000.0,0007.88,0010.83,0007.68
2024-03-26 01:25:00,SystemResetWarning,0818.7,4.99,000.00,018.2,017.3,000.0,026.9,020.0,15.2,0000.0,0007.87,0010.98,0007.67
2024-03-26 01:26:00,SystemResetWarning,0818.7,5.00,000.00,018.2,017.3,000.0,026.9,020.0,15.2,0000.0,0007.90,0011.54,0007.68
2024-03-26 01:27:00,SystemResetWarning,0818.7,5.00,000.00,018.2,017.3,000.0,026.9,020.0,15.2,0000.0,0007.91,0011.21,0007.68
2024-03-26 01:28:00,SystemResetWarning,0818.7,5.00,000.00,018.2,017.3,000.0,026.9,020.0,15.2,0000.0,0007.91,0011.30,0007.68
2024-03-26 01:29:00,SystemResetWarning,0818.7,5.00,000.00,018.2,017.3,000.0,026.9,020.0,15.2,0000.0,0007.92,0011.44,0007.67
2024-03-26 01:30:00,SystemResetWarning,0818.7,5.00,000.00,018.2,017.3,000.0,026.9,020.0,15.2,0000.0,0007.92,0011.01,0007.67
2024-03-26 01:31:00,SystemResetWarning,0818.7,5.01,000.00,018.2,017.3,000.0,026.9,020.0,15.2,0000.0,0007.90,0010.86,0007.66
2024-03-26 01:32:00,SystemResetWarning,0818.7,5.01,000.00,018.2,017.3,000.0,026.9,020.0,15.2,0000.0,0007.89,0010.85,0007.66
2024-03-26 01:33:00,SystemResetWarning,0818.7,5.00,000.00,018.2,017.3,000.0,026.9,020.0,15.3,0000.0,0007.91,0011.17,0007.66
2024-03-26 01:34:00,SystemResetWarning,0818.7,4.99,000.00,018.2,017.3,000.0,026.9,020.0,15.3,0000.0,0007.92,0011.10,0007.66
2024-03-26 01:35:00,SystemResetWarning,0818.7,5.00,000.00,018.2,017.3,000.0,026.9,020.0,15.3,0000.0,0007.93,0011.08,0007.68
2024-03-26 01:36:00,SystemResetWarning,0818.8,5.00,000.00,018.2,017.3,000.0,026.9,020.0,15.2,0000.0,0007.96,0011.07,0007.69
2024-03-26 01:37:00,SystemResetWarning,0818.8,5.00,000.00,018.2,017.3,000.0,026.9,020.0,15.2,0000.0,0007.97,0010.54,0007.73
2024-03-26 01:38:00,SystemResetWarning,0818.8,5.00,000.00,018.2,017.3,000.0,026.9,020.0,15.2,0000.0,0007.98,0010.52,0007.74
2024-03-26 01:39:00,SystemResetWarning,0818.8,5.00,000.00,018.2,017.3,000.0,026.9,020.0,15.2,0000.0,0007.98,0010.43,0007.75
2024-03-26 01:40:00,SystemResetWarning,0818.8,5.01,000.00,018.2,017.3,000.0,026.9,020.0,15.2,0000.0,0007.99,0010.35,0007.77
2024-03-26 01:41:00,SystemResetWarning,0818.8,5.01,000.00,018.2,017.3,000.0,026.9,020.0,15.3,0000.0,0007.99,0010.38,0007.78
2024-03-26 01:42:00,SystemResetWarning,0818.8,5.00,000.00,018.2,017.3,000.0,026.9,020.0,15.3,0000.0,0007.99,0010.56,0007.78
2024-03-26 01:43:00,SystemResetWarning,0818.8,4.99,000.00,018.2,017.3,000.0,026.9,020.0,15.3,0000.0,0008.02,0010.78,0007.80
2024-03-26 01:44:00,SystemResetWarning,0818.8,4.99,000.00,018.2,017.3,000.0,026.9,020.0,15.2,0000.0,0008.00,0010.83,0007.79
2024-03-26 01:45:00,SystemResetWarning,0819.0,4.99,000.00,018.2,017.3,000.0,026.9,020.0,15.2,0000.0,0007.99,0010.82,0007.79
2024-03-26 01:46:00,SystemResetWarning,0819.3,5.00,000.00,018.2,017.2,000.0,026.9,020.0,15.2,0000.0,0007.99,0010.65,0007.79
2024-03-26 01:47:00,SystemResetWarning,0819.4,5.01,000.00,018.2,017.2,000.0,026.9,020.0,15.2,0000.0,0008.02,0010.60,0007.81
2024-03-26 01:48:00,SystemResetWarning,0819.1,5.00,000.00,018.2,017.2,000.0,026.9,020.0,15.1,0000.0,0008.02,0010.63,0007.79
2024-03-26 01:49:00,SystemResetWarning,0819.0,5.00,000.00,018.2,017.2,000.0,026.9,020.0,15.1,0000.0,0008.00,0010.60,0007.78
2024-03-26 01:50:00,SystemResetWarning,0818.8,5.00,000.00,018.1,017.2,000.0,026.9,020.0,15.1,0000.0,0008.01,0010.65,0007.78
2024-03-26 01:51:00,SystemResetWarning,0818.9,5.00,000.00,018.1,017.2,000.0,026.9,020.0,15.1,0000.0,0007.99,0010.61,0007.77
2024-03-26 01:52:00,SystemResetWarning,0818.9,4.99,000.00,018.1,017.2,000.0,026.9,020.0,15.1,0000.0,0007.97,0010.35,0007.76
2024-03-26 01:53:00,SystemResetWarning,0818.8,5.00,000.00,018.1,017.2,000.0,026.9,020.0,15.1,0000.0,0007.96,0010.17,0007.75
2024-03-26 01:54:00,SystemResetWarning,0818.8,4.99,000.00,018.1,017.2,000.0,026.9,020.0,15.1,0000.0,0007.93,0009.92,0007.74
2024-03-26 01:55:00,SystemResetWarning,0818.8,5.01,000.00,018.1,017.2,000.0,026.9,020.0,15.1,0000.0,0007.92,0009.95,0007.72
2024-03-26 01:56:00,SystemResetWarning,0818.8,5.00,000.00,018.1,017.2,000.0,026.9,020.0,15.0,0000.0,0007.90,0009.76,0007.71
2024-03-26 01:57:00,SystemResetWarning,0818.8,5.01,000.00,018.1,017.1,000.0,026.9,020.0,15.0,0000.0,0007.90,0009.92,0007.70
2024-03-26 01:58:00,SystemResetWarning,0818.9,5.00,000.00,018.1,017.1,000.0,026.9,020.0,15.0,0000.0,0007.90,0009.91,0007.69
2024-03-26 01:59:00,SystemResetWarning,0818.8,5.00,000.00,018.1,017.1,000.0,026.9,020.0,15.0,0000.0,0007.88,0009.86,0007.70
